This is the latest recevied weather packets stored in our database for station/object DG9VH-13. If no packets are shown the sender has not sent any weather packets the latest 10 day(s).
| Time | Temp. | Humidity | Pressure | Rain* | Wind** | Luminosity | Snow |
|---|---|---|---|---|---|---|---|
| 1788276024 | 23.33° C | 47% | 1003.1 hPa | - | - | - | - |
| 1788275400 | 23.89° C | 47% | 1003.1 hPa | - | - | - | - |
| 1788274802 | 23.89° C | 47% | 1003 hPa | - | - | - | - |
| 1788274202 | 23.33° C | 49% | 1003.1 hPa | - | - | - | - |
| 1788273601 | 23.89° C | 48% | 1003.2 hPa | - | - | - | - |
| 1788273002 | 23.89° C | 47% | 1003.1 hPa | - | - | - | - |
| 1788272403 | 23.89° C | 48% | 1003.2 hPa | - | - | - | - |
| 1788271801 | 23.33° C | 46% | 1003.2 hPa | - | - | - | - |
| 1788271201 | 23.89° C | 48% | 1003.2 hPa | - | - | - | - |
| 1788270601 | 23.89° C | 48% | 1003.3 hPa | - | - | - | - |
| 1788270001 | 23.89° C | 49% | 1003.4 hPa | - | - | - | - |
| 1788269402 | 23.89° C | 49% | 1003.4 hPa | - | - | - | - |
| 1788268801 | 23.89° C | 49% | 1003.5 hPa | - | - | - | - |
| 1788268202 | 23.33° C | 49% | 1003.7 hPa | - | - | - | - |
| 1788267601 | 23.33° C | 51% | 1003.8 hPa | - | - | - | - |
| 1788267004 | 22.78° C | 51% | 1003.9 hPa | - | - | - | - |
| 1788266401 | 23.33° C | 51% | 1003.9 hPa | - | - | - | - |
| 1788265803 | 22.78° C | 52% | 1004.1 hPa | - | - | - | - |
| 1788265203 | 22.78° C | 52% | 1004.1 hPa | - | - | - | - |
| 1788264601 | 22.78° C | 51% | 1004.3 hPa | - | - | - | - |
| 1788264025 | 23.33° C | 51% | 1004.1 hPa | - | - | - | - |
| 1788263403 | 23.33° C | 52% | 1004.2 hPa | - | - | - | - |
| 1788262801 | 23.33° C | 51% | 1004.2 hPa | - | - | - | - |
| 1788262218 | 23.89° C | 50% | 1004.2 hPa | - | - | - | - |
| 1788261601 | 24.44° C | 48% | 1004.2 hPa | - | - | - | - |
* Rain since midnight (hover to see other rain measurements)
** Current wind speed in m/s (hover to see current wind gust speed)